TimeWET,TemperatureF,Dew PointF,Humidity,Sea Level PressureIn,VisibilityMPH,Wind Direction,Wind SpeedMPH,Gust SpeedMPH,PrecipitationIn,Events,Conditions,WindDirDegrees,DateUTC
12:00 AM,57.2,53.6,88,30.09,-9999.0,South,4.6,-,N/A,,Clear,190,2012-10-23 00:00:00
1:00 AM,57.2,53.6,88,30.09,-9999.0,WSW,4.6,-,N/A,,Clear,240,2012-10-23 01:00:00
2:00 AM,55.4,53.6,94,30.09,-9999.0,NW,3.5,-,N/A,,Clear,310,2012-10-23 02:00:00
3:00 AM,55,53,89,30.09,9,WSW,3.5,,,,Clear,250,2012-10-23 03:00:00
5:00 AM,55.4,51.8,88,30.09,-9999.0,SW,3.5,-,N/A,,Clear,220,2012-10-23 05:00:00
6:00 AM,54,52,90,30.10,12,SSW,3.5,,,,Clear,210,2012-10-23 06:00:00
8:00 AM,60.8,57.2,88,30.12,-9999.0,Calm,Calm,-,N/A,,Clear,0,2012-10-23 08:00:00
9:00 AM,68.0,57.2,68,30.12,-9999.0,Variable,2.3,-,N/A,,Clear,0,2012-10-23 09:00:00
10:00 AM,68.0,57.2,68,30.12,-9999.0,Variable,2.3,-,N/A,,Clear,0,2012-10-23 10:00:00
11:00 AM,73.4,55.4,53,30.12,-9999.0,Variable,2.3,-,N/A,,Clear,0,2012-10-23 11:00:00
12:00 PM,77.0,53.6,44,30.09,-9999.0,WNW,3.5,-,N/A,,Clear,300,2012-10-23 12:00:00
2:00 PM,80.6,57.2,45,30.06,6.2,North,6.9,-,N/A,,Partly Cloudy,350,2012-10-23 14:00:00
3:00 PM,80,56,34,29.99,16,North,5.8,,,,Scattered Clouds,350,2012-10-23 15:00:00
3:00 PM,80.6,57.2,45,30.06,6.2,North,5.8,-,N/A,,Partly Cloudy,350,2012-10-23 15:00:00
4:00 PM,78.8,60.8,54,30.06,6.2,North,8.1,-,N/A,,Partly Cloudy,10,2012-10-23 16:00:00
5:00 PM,75.2,60.8,61,30.06,-9999.0,North,5.8,-,N/A,,Clear,360,2012-10-23 17:00:00
7:00 PM,68.0,59.0,73,30.09,-9999.0,South,3.5,-,N/A,,Clear,180,2012-10-23 19:00:00
9:00 PM,63,59,81,30.06,9,South,2.3,,,,Clear,180,2012-10-23 21:00:00
9:00 PM,62.6,59.0,88,30.09,-9999.0,South,2.3,-,N/A,,Clear,180,2012-10-23 21:00:00
10:00 PM,60.8,57.2,88,30.09,-9999.0,SW,2.3,-,N/A,,Clear,220,2012-10-23 22:00:00
11:00 PM,60.8,57.2,88,30.06,-9999.0,SW,4.6,-,N/A,,Clear,230,2012-10-23 23:00:00